Time,TemperatureF,DewpointF,PressureIn,WindDirection,WindDirectionDegrees,WindSpeedMPH,WindSpeedGustMPH,Humidity,HourlyPrecipIn,Conditions,Clouds,dailyrainin,SoftwareType,DateUTC
2013-05-02 00:03:00,31.0,30.0,27.46,NNW,347,10.0,11.0,100,0.02,,,-99.99,,2013-05-02 05:03:00,
2013-05-02 00:08:00,31.0,30.0,27.46,NNW,341,11.0,13.0,100,0.02,,,-99.99,,2013-05-02 05:08:00,
2013-05-02 00:13:00,31.0,30.0,27.45,NNW,345,11.0,12.0,100,0.02,,,-99.99,,2013-05-02 05:13:00,
2013-05-02 00:23:00,31.0,30.0,27.45,North,351,10.0,12.0,100,0.02,,,-99.99,,2013-05-02 05:23:00,
2013-05-02 00:28:00,31.0,30.0,27.45,North,6,11.0,12.0,100,0.02,,,-99.99,,2013-05-02 05:28:00,
2013-05-02 00:33:00,31.0,30.0,27.45,NNW,348,11.0,12.0,100,0.02,,,-99.99,,2013-05-02 05:33:00,
2013-05-02 00:38:00,31.0,30.0,27.46,NNW,341,11.0,12.0,100,0.02,,,-99.99,,2013-05-02 05:38:00,
2013-05-02 00:43:00,31.0,30.0,27.46,NNW,331,11.0,12.0,100,0.02,,,-99.99,,2013-05-02 05:43:00,
2013-05-02 00:48:00,31.0,30.0,27.46,NNW,337,11.0,12.0,100,0.02,,,-99.99,,2013-05-02 05:48:00,
2013-05-02 00:53:00,31.0,30.0,27.47,NNW,331,11.0,12.0,100,0.02,,,-99.99,,2013-05-02 05:53:00,
2013-05-02 00:58:00,31.0,30.0,27.46,NNW,347,11.0,13.0,100,0.02,,,-99.99,,2013-05-02 05:58:00,
2013-05-02 01:03:00,31.0,30.0,27.47,North,350,11.0,13.0,100,0.02,,,-99.99,,2013-05-02 06:03:00,
2013-05-02 01:08:00,31.0,30.0,27.46,North,351,12.0,14.0,100,0.02,,,-99.99,,2013-05-02 06:08:00,
2013-05-02 01:18:00,31.0,30.0,27.47,NNW,341,12.0,14.0,100,0.02,,,-99.99,,2013-05-02 06:18:00,
2013-05-02 01:23:00,31.0,30.0,27.47,NNW,348,11.0,13.0,100,0.02,,,-99.99,,2013-05-02 06:23:00,
2013-05-02 01:28:00,31.0,30.0,27.47,NNW,337,12.0,14.0,100,0.02,,,-99.99,,2013-05-02 06:28:00,
2013-05-02 01:33:00,31.0,30.0,27.47,North,351,12.0,15.0,100,0.02,,,-99.99,,2013-05-02 06:33:00,
2013-05-02 01:38:00,31.0,30.0,27.48,NNW,345,12.0,14.0,100,0.02,,,-99.99,,2013-05-02 06:38:00,
2013-05-02 01:43:00,31.0,30.0,27.48,NNW,347,13.0,17.0,100,0.02,,,-99.99,,2013-05-02 06:43:00,
2013-05-02 01:48:00,31.0,30.0,27.48,North,353,13.0,16.0,100,0.02,,,-99.99,,2013-05-02 06:48:00,
2013-05-02 01:58:00,32.0,32.0,27.48,NNW,348,14.0,17.0,100,0.02,,,-99.99,,2013-05-02 06:58:00,
2013-05-02 02:03:00,32.0,32.0,27.48,NNW,341,13.0,15.0,100,0.02,,,-99.99,,2013-05-02 07:03:00,
2013-05-02 02:08:00,32.0,32.0,27.48,NNW,337,14.0,16.0,100,0.02,,,-99.99,,2013-05-02 07:08:00,
2013-05-02 02:13:00,32.0,32.0,27.48,NNW,330,12.0,15.0,100,0.02,,,-99.99,,2013-05-02 07:13:00,
2013-05-02 02:18:00,32.0,32.0,27.49,NNW,345,13.0,16.0,100,0.02,,,-99.99,,2013-05-02 07:18:00,
2013-05-02 02:23:00,32.0,32.0,27.49,NNW,347,13.0,15.0,100,0.02,,,-99.99,,2013-05-02 07:23:00,
2013-05-02 02:28:00,32.0,32.0,27.50,NNW,334,10.0,12.0,100,0.02,,,-99.99,,2013-05-02 07:28:00,
2013-05-02 02:33:00,32.0,32.0,27.48,NNW,336,11.0,13.0,100,0.02,,,-99.99,,2013-05-02 07:33:00,
2013-05-02 02:38:00,32.0,32.0,27.48,North,351,11.0,13.0,100,0.02,,,-99.99,,2013-05-02 07:38:00,
2013-05-02 02:43:00,32.0,32.0,27.49,NNW,334,9.0,11.0,100,0.02,,,-99.99,,2013-05-02 07:43:00,
2013-05-02 02:48:00,32.0,32.0,27.50,NW,317,8.0,9.0,100,0.02,,,-99.99,,2013-05-02 07:48:00,
2013-05-02 02:53:00,32.0,32.0,27.49,NW,307,6.0,7.0,100,0.02,,,-99.99,,2013-05-02 07:53:00,
2013-05-02 02:58:00,32.0,32.0,27.49,NW,306,6.0,7.0,100,0.02,,,-99.99,,2013-05-02 07:58:00,
2013-05-02 03:03:00,32.0,32.0,27.49,WNW,295,7.0,8.0,100,0.02,,,-99.99,,2013-05-02 08:03:00,
2013-05-02 03:08:00,32.0,32.0,27.49,WNW,302,7.0,9.0,100,0.02,,,-99.99,,2013-05-02 08:08:00,
2013-05-02 03:13:00,32.0,32.0,27.49,NW,305,5.0,7.0,100,0.02,,,-99.99,,2013-05-02 08:13:00,
2013-05-02 03:18:00,32.0,32.0,27.49,WNW,299,6.0,7.0,100,0.02,,,-99.99,,2013-05-02 08:18:00,
2013-05-02 03:23:00,32.0,32.0,27.49,NW,312,6.0,8.0,100,0.02,,,-99.99,,2013-05-02 08:23:00,
2013-05-02 03:28:00,31.0,30.0,27.50,WNW,295,5.0,9.0,100,0.02,,,-99.99,,2013-05-02 08:28:00,
2013-05-02 03:33:00,32.0,32.0,27.50,WNW,299,6.0,9.0,100,0.02,,,-99.99,,2013-05-02 08:33:00,
2013-05-02 03:43:00,32.0,32.0,27.49,WNW,296,9.0,11.0,100,0.02,,,-99.99,,2013-05-02 08:43:00,
2013-05-02 03:53:00,32.0,32.0,27.50,WNW,300,8.0,12.0,100,0.02,,,-99.99,,2013-05-02 08:53:00,
2013-05-02 03:58:00,32.0,32.0,27.50,WNW,295,8.0,12.0,100,0.02,,,-99.99,,2013-05-02 08:58:00,
2013-05-02 04:03:00,32.0,32.0,27.50,WNW,299,8.0,11.0,100,0.02,,,-99.99,,2013-05-02 09:03:00,
2013-05-02 04:13:00,32.0,32.0,27.50,WNW,282,4.0,9.0,100,0.02,,,-99.99,,2013-05-02 09:13:00,
2013-05-02 04:23:00,32.0,32.0,27.50,West,271,2.0,6.0,100,0.02,,,-99.99,,2013-05-02 09:23:00,
2013-05-02 04:28:00,32.0,32.0,27.50,North,0,0.0,0.0,100,0.02,,,-99.99,,2013-05-02 09:28:00,
2013-05-02 04:33:00,32.0,32.0,27.50,North,0,0.0,0.0,100,0.02,,,-99.99,,2013-05-02 09:33:00,
2013-05-02 04:38:00,32.0,32.0,27.50,North,0,0.0,0.0,100,0.02,,,-99.99,,2013-05-02 09:38:00,
2013-05-02 04:43:00,32.0,32.0,27.50,North,0,0.0,0.0,100,0.02,,,-99.99,,2013-05-02 09:43:00,
2013-05-02 04:53:00,32.0,32.0,27.50,North,0,0.0,0.0,100,0.02,,,-99.99,,2013-05-02 09:53:00,
2013-05-02 04:58:00,32.0,32.0,27.50,NW,307,8.0,9.0,100,0.02,,,-99.99,,2013-05-02 09:58:00,
2013-05-02 05:13:00,32.0,32.0,27.50,WNW,295,8.0,9.0,100,0.02,,,-99.99,,2013-05-02 10:13:00,
2013-05-02 05:18:00,31.0,30.0,27.50,WNW,302,9.0,11.0,100,0.02,,,-99.99,,2013-05-02 10:18:00,
2013-05-02 05:23:00,31.0,30.0,27.50,WNW,298,10.0,11.0,100,0.02,,,-99.99,,2013-05-02 10:23:00,
2013-05-02 05:33:00,31.0,30.0,27.50,WNW,298,11.0,13.0,100,0.02,,,-99.99,,2013-05-02 10:33:00,
2013-05-02 05:38:00,31.0,30.0,27.50,WNW,298,11.0,13.0,100,0.02,,,-99.99,,2013-05-02 10:38:00,
2013-05-02 05:48:00,31.0,30.0,27.50,WNW,296,11.0,13.0,100,0.02,,,-99.99,,2013-05-02 10:48:00,
2013-05-02 05:53:00,31.0,30.0,27.51,NW,312,10.0,12.0,100,0.02,,,-99.99,,2013-05-02 10:53:00,
2013-05-02 05:58:00,31.0,30.0,27.51,WNW,302,12.0,13.0,100,0.02,,,-99.99,,2013-05-02 10:58:00,
2013-05-02 06:08:00,31.0,30.0,27.51,NW,309,10.0,12.0,100,0.02,,,-99.99,,2013-05-02 11:08:00,
2013-05-02 06:13:00,31.0,30.0,27.51,NW,307,10.0,11.0,100,0.02,,,-99.99,,2013-05-02 11:13:00,
2013-05-02 06:18:00,31.0,30.0,27.51,NW,313,9.0,11.0,100,0.02,,,-99.99,,2013-05-02 11:18:00,
2013-05-02 06:28:00,31.0,30.0,27.51,NW,306,8.0,9.0,100,0.02,,,-99.99,,2013-05-02 11:28:00,
2013-05-02 06:33:00,31.0,30.0,27.52,NW,320,8.0,9.0,100,0.02,,,-99.99,,2013-05-02 11:33:00,
2013-05-02 06:43:00,31.0,30.0,27.52,NW,321,9.0,9.0,100,0.02,,,-99.99,,2013-05-02 11:43:00,
2013-05-02 06:48:00,31.0,30.0,27.52,NW,321,8.0,9.0,100,0.02,,,-99.99,,2013-05-02 11:48:00,
2013-05-02 06:53:00,30.0,30.0,27.53,NW,321,8.0,10.0,100,0.02,,,-99.99,,2013-05-02 11:53:00,
2013-05-02 07:08:00,30.0,30.0,27.53,NW,314,9.0,10.0,100,0.00,,,-99.99,,2013-05-02 12:08:00,
2013-05-02 07:13:00,30.0,30.0,27.53,NW,316,9.0,10.0,100,0.00,,,-99.99,,2013-05-02 12:13:00,
2013-05-02 07:23:00,30.0,30.0,27.53,NW,321,10.0,12.0,100,0.00,,,-99.99,,2013-05-02 12:23:00,
2013-05-02 07:28:00,30.0,30.0,27.53,NW,320,12.0,13.0,100,0.00,,,-99.99,,2013-05-02 12:28:00,
2013-05-02 07:33:00,30.0,30.0,27.53,NW,317,12.0,13.0,100,0.00,,,-99.99,,2013-05-02 12:33:00,
2013-05-02 07:38:00,30.0,30.0,27.53,NW,316,12.0,13.0,100,0.00,,,-99.99,,2013-05-02 12:38:00,
2013-05-02 07:43:00,30.0,30.0,27.54,NW,321,11.0,12.0,100,0.00,,,-99.99,,2013-05-02 12:43:00,
2013-05-02 07:48:00,30.0,30.0,27.54,NW,316,10.0,11.0,100,0.00,,,-99.99,,2013-05-02 12:48:00,
2013-05-02 07:53:00,30.0,30.0,27.54,NW,320,10.0,11.0,100,0.00,,,-99.99,,2013-05-02 12:53:00,
2013-05-02 08:03:00,30.0,30.0,27.54,NW,317,9.0,10.0,100,0.00,,,-99.99,,2013-05-02 13:03:00,
2013-05-02 08:08:00,30.0,30.0,27.54,NW,319,9.0,10.0,100,0.00,,,-99.99,,2013-05-02 13:08:00,
2013-05-02 08:13:00,31.0,30.0,27.54,NW,320,9.0,10.0,100,0.00,,,-99.99,,2013-05-02 13:13:00,
2013-05-02 08:23:00,31.0,30.0,27.55,NW,316,8.0,9.0,100,0.00,,,-99.99,,2013-05-02 13:23:00,
2013-05-02 08:28:00,31.0,30.0,27.55,NW,317,7.0,9.0,100,0.00,,,-99.99,,2013-05-02 13:28:00,
2013-05-02 08:33:00,31.0,30.0,27.55,NW,310,7.0,8.0,100,0.00,,,-99.99,,2013-05-02 13:33:00,
2013-05-02 08:43:00,31.0,30.0,27.55,NW,324,10.0,11.0,100,0.00,,,-99.99,,2013-05-02 13:43:00,
2013-05-02 08:48:00,31.0,30.0,27.55,NW,324,10.0,12.0,100,0.00,,,-99.99,,2013-05-02 13:48:00,
2013-05-02 08:58:00,31.0,30.0,27.55,NW,320,9.0,11.0,100,0.00,,,-99.99,,2013-05-02 13:58:00,
2013-05-02 09:03:00,31.0,30.0,27.55,NW,314,9.0,11.0,100,0.00,,,-99.99,,2013-05-02 14:03:00,
2013-05-02 09:08:00,31.0,30.0,27.55,NW,326,8.0,10.0,100,0.00,,,-99.99,,2013-05-02 14:08:00,
2013-05-02 09:13:00,32.0,32.0,27.55,NW,317,8.0,10.0,100,0.00,,,-99.99,,2013-05-02 14:13:00,
2013-05-02 09:18:00,32.0,32.0,27.55,NNW,333,6.0,8.0,100,0.00,,,-99.99,,2013-05-02 14:18:00,
2013-05-02 09:23:00,32.0,32.0,27.55,NNW,333,2.0,6.0,100,0.00,,,-99.99,,2013-05-02 14:23:00,
2013-05-02 09:28:00,32.0,32.0,27.55,North,0,0.0,0.0,100,0.00,,,-99.99,,2013-05-02 14:28:00,
2013-05-02 09:33:00,32.0,32.0,27.55,North,0,0.0,0.0,100,0.00,,,-99.99,,2013-05-02 14:33:00,
2013-05-02 09:43:00,33.0,34.0,27.55,North,0,0.0,0.0,100,0.00,,,-99.99,,2013-05-02 14:43:00,
2013-05-02 09:48:00,33.0,34.0,27.55,North,0,0.0,0.0,100,0.00,,,-99.99,,2013-05-02 14:48:00,
2013-05-02 09:58:00,34.0,34.0,27.55,NNW,333,9.0,11.0,100,0.00,,,-99.99,,2013-05-02 14:58:00,
2013-05-02 10:03:00,34.0,34.0,27.55,NNW,336,9.0,10.0,100,0.00,,,-99.99,,2013-05-02 15:03:00,
2013-05-02 10:28:00,34.0,34.0,27.55,NNW,341,10.0,13.0,100,0.00,,,-99.99,,2013-05-02 15:28:00,
2013-05-02 10:33:00,35.0,36.0,27.55,NNW,336,9.0,10.0,100,0.00,,,-99.99,,2013-05-02 15:33:00,
2013-05-02 10:38:00,35.0,36.0,27.54,North,350,10.0,12.0,100,0.00,,,-99.99,,2013-05-02 15:38:00,
2013-05-02 10:43:00,35.0,36.0,27.54,NNW,347,10.0,11.0,100,0.00,,,-99.99,,2013-05-02 15:43:00,
2013-05-02 10:48:00,35.0,36.0,27.54,NW,324,11.0,13.0,100,0.00,,,-99.99,,2013-05-02 15:48:00,
2013-05-02 10:53:00,35.0,36.0,27.54,NW,320,10.0,10.0,99,0.00,,,-99.99,,2013-05-02 15:53:00,
2013-05-02 11:08:00,37.0,37.0,27.54,North,360,13.0,14.0,99,0.00,,,-99.99,,2013-05-02 16:08:00,
2013-05-02 11:13:00,37.0,37.0,27.54,North,353,11.0,13.0,99,0.00,,,-99.99,,2013-05-02 16:13:00,
2013-05-02 11:23:00,38.0,37.0,27.54,NNW,340,11.0,13.0,98,0.00,,,-99.99,,2013-05-02 16:23:00,
2013-05-02 11:28:00,38.0,37.0,27.54,NNW,348,12.0,13.0,98,0.00,,,-99.99,,2013-05-02 16:28:00,
2013-05-02 11:38:00,39.0,39.0,27.54,NW,321,13.0,15.0,98,0.00,,,-99.99,,2013-05-02 16:38:00,
2013-05-02 11:43:00,40.0,39.0,27.54,NW,326,13.0,15.0,98,0.00,,,-99.99,,2013-05-02 16:43:00,
2013-05-02 11:48:00,40.0,39.0,27.54,NW,326,13.0,16.0,97,0.00,,,-99.99,,2013-05-02 16:48:00,
2013-05-02 11:58:00,40.0,39.0,27.54,NNW,334,13.0,15.0,97,0.00,,,-99.99,,2013-05-02 16:58:00,
2013-05-02 12:03:00,41.0,41.0,27.54,North,355,13.0,15.0,97,0.00,,,-99.99,,2013-05-02 17:03:00,
2013-05-02 12:18:00,42.0,41.0,27.53,NNW,331,13.0,16.0,97,0.00,,,-99.99,,2013-05-02 17:18:00,
2013-05-02 12:23:00,42.0,41.0,27.53,NNW,330,14.0,16.0,98,0.00,,,-99.99,,2013-05-02 17:23:00,
2013-05-02 12:33:00,42.0,41.0,27.52,NNW,327,15.0,19.0,97,0.00,,,-99.99,,2013-05-02 17:33:00,
2013-05-02 12:38:00,43.0,43.0,27.52,NNW,340,13.0,15.0,97,0.00,,,-99.99,,2013-05-02 17:38:00,
2013-05-02 12:43:00,43.0,43.0,27.52,NW,324,13.0,16.0,97,0.00,,,-99.99,,2013-05-02 17:43:00,
2013-05-02 12:53:00,44.0,43.0,27.51,North,351,14.0,17.0,96,0.00,,,-99.99,,2013-05-02 17:53:00,
2013-05-02 13:08:00,46.0,45.0,27.51,NW,326,14.0,17.0,94,0.00,,,-99.99,,2013-05-02 18:08:00,
2013-05-02 13:13:00,46.0,45.0,27.51,NNW,334,12.0,14.0,92,0.00,,,-99.99,,2013-05-02 18:13:00,
2013-05-02 13:23:00,47.0,45.0,27.50,North,7,13.0,17.0,89,0.00,,,-99.99,,2013-05-02 18:23:00,
2013-05-02 13:28:00,47.0,43.0,27.50,North,3,14.0,17.0,87,0.00,,,-99.99,,2013-05-02 18:28:00,
2013-05-02 13:38:00,47.0,43.0,27.49,NNW,338,15.0,26.0,86,0.00,,,-99.99,,2013-05-02 18:38:00,
2013-05-02 13:43:00,47.0,43.0,27.49,North,4,14.0,17.0,83,0.00,,,-99.99,,2013-05-02 18:43:00,
2013-05-02 13:58:00,48.0,41.0,27.48,North,351,12.0,14.0,78,0.00,,,-99.99,,2013-05-02 18:58:00,
2013-05-02 14:03:00,48.0,41.0,27.48,NNW,341,16.0,19.0,76,0.00,,,-99.99,,2013-05-02 19:03:00,
2013-05-02 14:08:00,48.0,41.0,27.48,NW,314,13.0,16.0,74,0.00,,,-99.99,,2013-05-02 19:08:00,
2013-05-02 14:13:00,47.0,39.0,27.48,NNW,343,14.0,18.0,72,0.00,,,-99.99,,2013-05-02 19:13:00,
2013-05-02 14:18:00,48.0,39.0,27.47,NNW,331,15.0,17.0,71,0.00,,,-99.99,,2013-05-02 19:18:00,
2013-05-02 14:23:00,48.0,37.0,27.47,NNW,348,13.0,17.0,68,0.00,,,-99.99,,2013-05-02 19:23:00,
2013-05-02 14:28:00,48.0,39.0,27.47,NNW,327,13.0,14.0,71,0.00,,,-99.99,,2013-05-02 19:28:00,
2013-05-02 14:33:00,48.0,39.0,27.47,North,350,13.0,17.0,69,0.00,,,-99.99,,2013-05-02 19:33:00,
2013-05-02 14:38:00,49.0,39.0,27.47,NNW,331,13.0,15.0,67,0.00,,,-99.99,,2013-05-02 19:38:00,
2013-05-02 14:48:00,50.0,37.0,27.47,NNW,341,17.0,19.0,63,0.00,,,-99.99,,2013-05-02 19:48:00,
2013-05-02 14:53:00,50.0,37.0,27.46,North,3,14.0,17.0,62,0.00,,,-99.99,,2013-05-02 19:53:00,
2013-05-02 15:08:00,50.0,37.0,27.46,NW,326,14.0,17.0,61,0.00,,,-99.99,,2013-05-02 20:08:00,
2013-05-02 15:13:00,49.0,36.0,27.46,NNW,337,14.0,17.0,61,0.00,,,-99.99,,2013-05-02 20:13:00,
2013-05-02 15:23:00,49.0,36.0,27.45,NNW,334,14.0,16.0,60,0.00,,,-99.99,,2013-05-02 20:23:00,
2013-05-02 15:28:00,49.0,36.0,27.45,NNW,347,17.0,20.0,59,0.00,,,-99.99,,2013-05-02 20:28:00,
2013-05-02 15:48:00,50.0,36.0,27.44,NNW,341,18.0,22.0,59,0.00,,,-99.99,,2013-05-02 20:48:00,
2013-05-02 15:58:00,51.0,37.0,27.43,WNW,295,15.0,19.0,59,0.00,,,-99.99,,2013-05-02 20:58:00,
2013-05-02 16:03:00,51.0,37.0,27.43,NW,316,17.0,21.0,58,0.00,,,-99.99,,2013-05-02 21:03:00,
2013-05-02 16:13:00,51.0,37.0,27.43,NW,312,18.0,21.0,58,0.00,,,-99.99,,2013-05-02 21:13:00,
2013-05-02 16:48:00,50.0,34.0,27.41,North,351,14.0,16.0,55,0.00,,,-99.99,,2013-05-02 21:48:00,
2013-05-02 16:53:00,50.0,36.0,27.41,North,351,13.0,16.0,56,0.00,,,-99.99,,2013-05-02 21:53:00,
2013-05-02 17:03:00,49.0,34.0,27.41,NNW,341,14.0,17.0,57,0.00,,,-99.99,,2013-05-02 22:03:00,
2013-05-02 17:18:00,49.0,36.0,27.40,NNW,348,10.0,12.0,60,0.00,,,-99.99,,2013-05-02 22:18:00,
2013-05-02 17:23:00,49.0,36.0,27.40,North,10,11.0,13.0,58,0.00,,,-99.99,,2013-05-02 22:23:00,
2013-05-02 17:28:00,49.0,34.0,27.40,North,6,9.0,12.0,57,0.00,,,-99.99,,2013-05-02 22:28:00,
2013-05-02 17:33:00,50.0,36.0,27.40,North,350,8.0,11.0,58,0.00,,,-99.99,,2013-05-02 22:33:00,
2013-05-02 17:43:00,50.0,36.0,27.39,NW,324,10.0,12.0,57,0.00,,,-99.99,,2013-05-02 22:43:00,
2013-05-02 17:48:00,50.0,36.0,27.39,NW,323,7.0,10.0,57,0.00,,,-99.99,,2013-05-02 22:48:00,
2013-05-02 17:53:00,50.0,36.0,27.39,North,351,10.0,12.0,57,0.00,,,-99.99,,2013-05-02 22:53:00,
2013-05-02 17:58:00,50.0,36.0,27.39,NNW,348,11.0,14.0,59,0.00,,,-99.99,,2013-05-02 22:58:00,
2013-05-02 18:03:00,49.0,36.0,27.39,NNW,341,12.0,15.0,59,0.00,,,-99.99,,2013-05-02 23:03:00,
2013-05-02 18:08:00,49.0,36.0,27.39,North,8,10.0,11.0,59,0.00,,,-99.99,,2013-05-02 23:08:00,
2013-05-02 18:13:00,48.0,36.0,27.39,North,7,20.0,23.0,62,0.00,,,-99.99,,2013-05-02 23:13:00,
2013-05-02 18:18:00,47.0,37.0,27.39,North,8,19.0,23.0,68,0.00,,,-99.99,,2013-05-02 23:18:00,
2013-05-02 18:28:00,47.0,37.0,27.39,North,355,13.0,15.0,67,0.00,,,-99.99,,2013-05-02 23:28:00,
2013-05-02 18:33:00,47.0,37.0,27.38,NNE,17,9.0,11.0,67,0.00,,,-99.99,,2013-05-02 23:33:00,
2013-05-02 18:38:00,47.0,36.0,27.38,NE,35,9.0,10.0,66,0.00,,,-99.99,,2013-05-02 23:38:00,
2013-05-02 18:48:00,48.0,37.0,27.38,NE,56,6.0,8.0,65,0.00,,,-99.99,,2013-05-02 23:48:00,
2013-05-02 18:53:00,48.0,37.0,27.38,NNE,31,6.0,8.0,65,0.00,,,-99.99,,2013-05-02 23:53:00,
2013-05-02 18:58:00,48.0,36.0,27.38,NE,35,8.0,9.0,64,0.00,,,-99.99,,2013-05-02 23:58:00,
2013-05-02 19:03:00,48.0,36.0,27.38,NNE,27,6.0,8.0,63,0.00,,,-99.99,,2013-05-03 00:03:00,
2013-05-02 19:08:00,49.0,37.0,27.38,NNW,341,9.0,12.0,63,0.00,,,-99.99,,2013-05-03 00:08:00,
2013-05-02 19:18:00,49.0,37.0,27.37,North,1,10.0,11.0,62,0.00,,,-99.99,,2013-05-03 00:18:00,
2013-05-02 19:23:00,49.0,37.0,27.37,NNW,341,10.0,11.0,62,0.00,,,-99.99,,2013-05-03 00:23:00,
2013-05-02 19:28:00,49.0,37.0,27.37,NNW,338,8.0,9.0,63,0.00,,,-99.99,,2013-05-03 00:28:00,
2013-05-02 19:38:00,49.0,37.0,27.36,North,7,8.0,9.0,62,0.00,,,-99.99,,2013-05-03 00:38:00,
2013-05-02 19:43:00,49.0,37.0,27.36,North,350,6.0,8.0,63,0.00,,,-99.99,,2013-05-03 00:43:00,
2013-05-02 19:48:00,49.0,37.0,27.36,North,360,6.0,7.0,63,0.00,,,-99.99,,2013-05-03 00:48:00,
2013-05-02 19:53:00,49.0,37.0,27.36,NNW,336,5.0,7.0,63,0.00,,,-99.99,,2013-05-03 00:53:00,
2013-05-02 19:58:00,49.0,37.0,27.36,NNW,329,5.0,6.0,64,0.00,,,-99.99,,2013-05-03 00:58:00,
2013-05-02 20:03:00,49.0,37.0,27.36,NNW,341,4.0,4.0,64,0.00,,,-99.99,,2013-05-03 01:03:00,
2013-05-02 20:08:00,49.0,37.0,27.36,NNW,348,4.0,5.0,65,0.00,,,-99.99,,2013-05-03 01:08:00,
2013-05-02 20:13:00,48.0,37.0,27.35,North,350,3.0,4.0,66,0.00,,,-99.99,,2013-05-03 01:13:00,
2013-05-02 20:18:00,48.0,37.0,27.36,North,0,0.0,0.0,66,0.00,,,-99.99,,2013-05-03 01:18:00,
2013-05-02 20:23:00,48.0,37.0,27.35,North,0,0.0,0.0,66,0.00,,,-99.99,,2013-05-03 01:23:00,
2013-05-02 20:33:00,47.0,36.0,27.35,North,0,0.0,0.0,65,0.00,,,-99.99,,2013-05-03 01:33:00,
2013-05-02 20:38:00,47.0,36.0,27.35,North,0,0.0,0.0,66,0.00,,,-99.99,,2013-05-03 01:38:00,
2013-05-02 20:43:00,46.0,36.0,27.35,North,0,0.0,0.0,66,0.00,,,-99.99,,2013-05-03 01:43:00,
2013-05-02 20:48:00,46.0,36.0,27.35,North,0,0.0,0.0,66,0.00,,,-99.99,,2013-05-03 01:48:00,
2013-05-02 20:53:00,46.0,36.0,27.35,North,0,0.0,0.0,66,0.00,,,-99.99,,2013-05-03 01:53:00,
2013-05-02 20:58:00,46.0,36.0,27.35,North,0,0.0,0.0,66,0.00,,,-99.99,,2013-05-03 01:58:00,
2013-05-02 21:13:00,45.0,36.0,27.35,North,0,0.0,0.0,68,0.00,,,-99.99,,2013-05-03 02:13:00,
2013-05-02 21:18:00,45.0,36.0,27.35,North,0,0.0,0.0,68,0.00,,,-99.99,,2013-05-03 02:18:00,
2013-05-02 21:23:00,44.0,34.0,27.35,North,0,0.0,0.0,68,0.00,,,-99.99,,2013-05-03 02:23:00,
2013-05-02 21:28:00,44.0,34.0,27.35,North,0,0.0,0.0,68,0.00,,,-99.99,,2013-05-03 02:28:00,
2013-05-02 21:33:00,44.0,34.0,27.35,North,0,0.0,0.0,68,0.00,,,-99.99,,2013-05-03 02:33:00,
2013-05-02 21:38:00,44.0,34.0,27.35,North,0,0.0,0.0,69,0.00,,,-99.99,,2013-05-03 02:38:00,
2013-05-02 21:48:00,44.0,34.0,27.35,North,0,0.0,0.0,69,0.00,,,-99.99,,2013-05-03 02:48:00,
2013-05-02 21:53:00,43.0,34.0,27.35,North,0,0.0,0.0,70,0.00,,,-99.99,,2013-05-03 02:53:00,
2013-05-02 21:58:00,42.0,34.0,27.35,SSW,197,3.0,4.0,71,0.00,,,-99.99,,2013-05-03 02:58:00,
2013-05-02 22:08:00,41.0,34.0,27.35,SW,220,3.0,4.0,74,0.00,,,-99.99,,2013-05-03 03:08:00,
2013-05-02 22:13:00,41.0,34.0,27.35,North,0,0.0,0.0,75,0.00,,,-99.99,,2013-05-03 03:13:00,
2013-05-02 22:18:00,41.0,34.0,27.35,North,0,0.0,0.0,76,0.00,,,-99.99,,2013-05-03 03:18:00,
2013-05-02 22:23:00,41.0,34.0,27.35,North,0,0.0,0.0,76,0.00,,,-99.99,,2013-05-03 03:23:00,
2013-05-02 22:28:00,42.0,34.0,27.35,North,0,0.0,0.0,75,0.00,,,-99.99,,2013-05-03 03:28:00,
2013-05-02 22:33:00,42.0,34.0,27.34,North,0,0.0,0.0,75,0.00,,,-99.99,,2013-05-03 03:33:00,
2013-05-02 22:48:00,42.0,34.0,27.34,SW,233,3.0,5.0,75,0.00,,,-99.99,,2013-05-03 03:48:00,
2013-05-02 22:53:00,41.0,34.0,27.34,West,264,4.0,6.0,75,0.00,,,-99.99,,2013-05-03 03:53:00,
2013-05-02 22:58:00,41.0,34.0,27.34,West,269,4.0,5.0,76,0.00,,,-99.99,,2013-05-03 03:58:00,
2013-05-02 23:08:00,40.0,34.0,27.34,North,0,0.0,0.0,77,0.00,,,-99.99,,2013-05-03 04:08:00,
2013-05-02 23:13:00,40.0,34.0,27.34,North,0,0.0,0.0,77,0.00,,,-99.99,,2013-05-03 04:13:00,
2013-05-02 23:23:00,40.0,34.0,27.34,North,0,0.0,0.0,78,0.00,,,-99.99,,2013-05-03 04:23:00,
2013-05-02 23:28:00,39.0,32.0,27.34,North,0,0.0,0.0,78,0.00,,,-99.99,,2013-05-03 04:28:00,
2013-05-02 23:33:00,40.0,34.0,27.33,North,0,0.0,0.0,78,0.00,,,-99.99,,2013-05-03 04:33:00,
2013-05-02 23:38:00,39.0,32.0,27.33,North,0,0.0,0.0,78,0.00,,,-99.99,,2013-05-03 04:38:00,
2013-05-02 23:43:00,39.0,34.0,27.33,North,0,0.0,0.0,79,0.00,,,-99.99,,2013-05-03 04:43:00,
2013-05-02 23:48:00,39.0,34.0,27.33,North,0,0.0,0.0,79,0.00,,,-99.99,,2013-05-03 04:48:00,
2013-05-02 23:53:00,39.0,34.0,27.33,North,0,0.0,0.0,79,0.00,,,-99.99,,2013-05-03 04:53:00,
2013-05-02 23:58:00,39.0,34.0,27.33,North,0,0.0,0.0,80,0.00,,,-99.99,,2013-05-03 04:58:00,